Weather in Kotelva

Ukraine / Poltava Region     50˚03′43″N   34˚45′53″E
temp.,
°C
wind,
m/s
gust,
m/s
humid.,
%
clouds,
%
prec.,
mm/h
press.,
hPa
HPBL,
m
28 november, sat
sat2823:00+3˚sw3573100 0.0 1019203
02:00+3˚sw2377100 0.0 1019124
05:00+3˚sw1183100 0.0 101924
08:00+4˚se2381100 0.0 1019151
11:00+5˚sse3569100 0.0 1020351
14:00+6˚sse3672100 0.0 1018369
17:00+5˚s3896100 0.4 1018370
20:00+6˚s2895100 1.3 1019478
29 november, sun
sun2923:00+6˚sse41192100 1.1 1020617
02:00+6˚sse61283100 1.9 1020525
05:00+6˚sse51282100 0.3 1019514
08:00+6˚sse61378100 0.6 1020563
11:00+7˚sse71373100 0.1 1021624
14:00+7˚sse71174100 0.1 1022644
17:00+6˚se51081100 0.0 1022512
20:00+6˚se61082100 0.1 1023435
30 november, mon
mon3023:00+5˚se61187100 0.1 1023401
02:00+5˚se51091100 0.1 1023458
05:00+5˚se71188100 0.0 1023473
08:00+4˚se71090100 0.0 1024513
11:00+5˚se6986100 0.0 1024575
14:00+6˚sse6982100 0.0 1024697
17:00+6˚se5978100 0.0 1024739
20:00+5˚sse5973100 0.0 1025812
1 december, tue
tue123:00+4˚se4875100 0.0 1025634
02:00+4˚se3675100 0.0 1025338
05:00+4˚ese4776100 0.0 1025474
08:00+3˚ese4771100 0.0 1026429
11:00+3˚ese4668100 0.0 1027512
14:00+2˚e4682100 0.0 1027516
17:00+1˚e4595100 0.2 1027318
20:00e4695100 0.4 1027418
2 december, wed
wed223:00ese4794100 0.3 1027459
02:00e4694100 0.5 1028426
05:00−1˚e3793100 0.1 1028377
08:00−1˚e4792100 0.1 1028383
11:00+1˚ese4684100 0.1 1028471
14:00+1˚ese3586100 0.1 1028429
17:00+1˚ese4789100 0.0 1028390
20:00+1˚ese4795100 0.1 1029421